Tracking 28081 objects as of 27-Sep-2023
HD Live streaming from Space Station
objects crossing your sky now

STARLINK-1523

Track STARLINK-1523 now!
10-day predictions
STARLINK-1523 is classified as:


NORAD ID: 46028
Int'l Code: 2020-055B
Perigee: 553.4 km
Apogee: 555.5 km
Inclination: 53.1 °
Period: 95.6 minutes
Semi major axis: 6925 km
RCS: Unknown
Launch date: August 7, 2020
Source: United States (US)
Launch site: AIR FORCE EASTERN TEST RANGE (AFETR)
Your satellite tracking list
Your tracking list is empty




NASA's NSSDC Master Catalog

Two Line Element Set (TLE):
1 46028U 20055B   23269.75708232 -.00000211  00000-0  47166-5 0  9992
2 46028  53.0538 184.1247 0001491 103.2749 256.8407 15.06364759174015
Source of the keplerian elements: AFSPC